TimeEST,TemperatureF,Dew PointF,Humidity,Sea Level PressureIn,VisibilityMPH,Wind Direction,Wind SpeedMPH,Gust SpeedMPH,PrecipitationIn,Events,Conditions,WindDirDegrees,DateUTC
12:51 AM,39.0,28.9,67,30.04,10.0,SW,8.1,-,N/A,,Mostly Cloudy,220,2011-12-30 05:51:00
1:51 AM,39.9,30.0,68,30.04,10.0,SW,6.9,-,N/A,,Mostly Cloudy,230,2011-12-30 06:51:00
2:51 AM,39.0,30.0,70,30.05,10.0,SW,8.1,-,N/A,,Mostly Cloudy,230,2011-12-30 07:51:00
3:51 AM,39.9,30.9,70,30.05,10.0,SW,5.8,-,N/A,,Mostly Cloudy,230,2011-12-30 08:51:00
4:51 AM,42.1,30.9,65,30.05,10.0,SSW,3.5,-,N/A,,Scattered Clouds,210,2011-12-30 09:51:00
5:51 AM,39.0,30.0,70,30.06,10.0,WSW,3.5,-,N/A,,Partly Cloudy,240,2011-12-30 10:51:00
6:51 AM,39.0,30.0,70,30.08,10.0,SSW,5.8,-,N/A,,Partly Cloudy,200,2011-12-30 11:51:00
7:51 AM,39.0,30.9,73,30.08,10.0,South,3.5,-,N/A,,Scattered Clouds,190,2011-12-30 12:51:00
8:51 AM,41.0,33.1,73,30.11,10.0,SW,5.8,-,N/A,,Scattered Clouds,230,2011-12-30 13:51:00
9:51 AM,48.0,35.1,61,30.11,10.0,SW,8.1,-,N/A,,Partly Cloudy,230,2011-12-30 14:51:00
10:51 AM,53.1,35.1,50,30.09,10.0,SW,9.2,-,N/A,,Partly Cloudy,220,2011-12-30 15:51:00
11:51 AM,57.0,35.1,44,30.06,10.0,WSW,12.7,-,N/A,,Partly Cloudy,240,2011-12-30 16:51:00
12:51 PM,61.0,36.0,39,30.02,10.0,SW,12.7,-,N/A,,Scattered Clouds,220,2011-12-30 17:51:00
1:51 PM,62.1,35.1,37,29.99,10.0,SSW,13.8,21.9,N/A,,Partly Cloudy,210,2011-12-30 18:51:00
2:51 PM,62.1,36.0,38,29.99,10.0,SSW,12.7,24.2,N/A,,Scattered Clouds,210,2011-12-30 19:51:00
3:51 PM,60.8,39.2,45,29.99,10.0,SW,13.8,23.0,N/A,,Scattered Clouds,220,2011-12-30 20:51:00
4:51 PM,59.0,41.0,51,29.98,10.0,SSW,10.4,-,N/A,,Scattered Clouds,200,2011-12-30 21:51:00
5:51 PM,57.2,41.0,55,29.97,10.0,South,6.9,-,N/A,,Mostly Cloudy,180,2011-12-30 22:51:00
6:51 PM,57.9,42.1,56,29.98,10.0,South,12.7,-,N/A,,Mostly Cloudy,190,2011-12-30 23:51:00
7:51 PM,57.0,42.1,57,29.98,10.0,SSW,11.5,-,N/A,,Mostly Cloudy,200,2011-12-31 00:51:00
8:51 PM,57.9,42.1,56,29.98,10.0,SSW,15.0,21.9,N/A,,Mostly Cloudy,200,2011-12-31 01:51:00
9:51 PM,55.9,42.1,60,29.99,10.0,SSW,12.7,-,N/A,,Mostly Cloudy,200,2011-12-31 02:51:00
10:51 PM,55.9,43.0,62,29.98,10.0,SSW,12.7,-,N/A,,Mostly Cloudy,210,2011-12-31 03:51:00
11:51 PM,55.4,42.8,63,29.96,10.0,SSW,10.4,19.6,N/A,,Mostly Cloudy,200,2011-12-31 04:51:00